"Pseudo-MPEC" for P11JDFU

Created 2023 Sep 19 11:22:28 UT using Find_Orb

Click here for an explanation of pseudo-MPECs

 
 Astrometry: 
     P11JDFU  C2023 09 0841#F7tJ?Y48/LrETrS`bd;Q[/1I!`pirs+d%B]^WvH)nm]@Fw(d9F51
     P11JDFU  C2023 09 084FyI#`?lXlwP0Wrn;Oj=381pX1H:v;(v=(yuh?ge?*AstrometryF51
     P11JDFU  C2023 09 12vvVjk,4/stC8_kR5,51$=1y_*@_o_Ck5y5[_#DX)rAWGNmTcX2ZiF52
     P11JDFU  C2023 09 121?MQXCk!hX;:[9re1Nredacted;`ivh\*Q:e^'*1Xb.I=w*Uy269F52
     P11JDFU* C2023 09 15*UJ3mc*Om6Dc!\j`GHHVL@-08/JR.clickbMAX@*JQRH:.^^n+-pF51
     P11JDFU  C2023 09 15;3jHw(d`Rqca36(k0g-4:63HtqpX@uk1DB9b)F3l-F\i7FVE[O9qF51
     P11JDFU  C2023 09 15b;lYeL8+!]pEdb/0uUqB7here`3]q2rFKD.f6gQ%7qcaqCKYR5.aF51
     P11JDFU KC2023 09 16.33921200 06 58.511-15 42 10.73   ~9G97 21.70GVNEOCPI52
     P11JDFU KC2023 09 16.34618500 06 59.969-15 41 59.14   ~9G97 21.90GVNEOCPI52
     P11JDFU KC2023 09 16.35314900 07 01.520-15 41 46.79   ~9G97 22.04GVNEOCPI52
     P11JDFU 3C2023 09 16,PxGd5vbd,rhv9tlsec6LZYR9egHLNRJup99G!WI-)7)Beu;P_QWT14
     P11JDFU 3C2023 09 16sd/3OP5!XA%S8?F_tW.(`ye)?;xo*forLsH5`xfOSDqYRcRRH00bT14
     P11JDFU 3C2023 09 16p/NS(i,xCj$p8n1jZ`DX1#dt/=v5',xQp_xoexplanationkPl[/T14

Station data:
(F51) Pan-STARRS 1, Haleakala  (N20.707234 W156.255910)  US/Hawaii.
   Observers J. Bulger, T. Lowe, A. Schultz, M. Willman. Measurers K.
   Chambers, S. Chastel, T. de Boer, L. Denneau, J. Fairlamb, H. Flewelling,
   M. Huber, C.-C. Lin, E. Magnier, Y. Ramanjooloo, R. Wainscoat, R. Weryk.
   1.8-m Ritchey-Chrétien + CCD.
(F52) Pan-STARRS 2, Haleakala  (N20.707382 W156.255910)  US/Hawaii.
   Observers J. Bulger, T. Dukes, T. Lowe, A. Schultz, M. Willman. Measurers
   K. Chambers, S. Chastel, T. de Boer, L. Denneau, J. Fairlamb, H.
   Flewelling, M. Huber, C.-C. Lin, E. Magnier, Y. Ramanjooloo, R. Wainscoat,
   R. Weryk. 1.8-m Ritchey-Chrétien + CCD.
(I52) Steward Observatory, Mt. Lemmon Station  (N32.442544 W110.788920)
   US/Arizona.  Observers T. A. Pruyne, B. M. Africano, E. J. Christensen, G.
   A. Farneth, D. C. Fuls, A. R. Gibbs, A. D. Grauer, H. Gröller, J. A.
   Johnson, R. A. Kowalski, S. M. Larson, G. J. Leonard, D. Rankin, R. L.
   Seaman, F. C. Shelly, K. W. Wierzchoś. 1.0-m prime focus + CCD.
(T14) Mauna Kea-UH/Tholen NEO Follow-Up (CFHT)  (N19.825252 W155.468876)
   US/Hawaii.  Observer R. Weryk. 3.6-m Canada-France-Hawaii Telescope.

Orbital elements:  P11JDFU
   Perihelion 2023 Sep 28.39918 +/- 0.00486 TT =  9:34:49 (JD 2460215.89918)
Epoch 2023 Sep 16.0 TT = JDT 2460203.5   Earth MOID: 0.1246   Ma: 0.0012
M 356.07200879 +/- 0.015            (J2000 ecliptic)             AutoNEOCP
n   0.31679441 +/- 0.00113          Peri.  308.46974 +/- 0.016
a   2.13116807 +/- 0.00505          Node    56.72083 +/- 0.011
e   0.4727591 +/- 0.00113           Incl.    1.91166 +/- 0.0034
P   3.11                   H 25.42  G  0.15   U  8.2
q 1.12363891 +/- 0.000255    Q 3.13869723 +/- 0.00984
From 13 observations 2023 Sept. 8-16; mean residual 0".25
Residuals in arcseconds: 
230908 F51  .13+  .16-    230915 F51  .00   .06+    230916 T14  .01-  .01+    
230908 F51  .11-  .17+    230915 F51  .08+  .06+    230916 T14  .02-  .00     
230912 F52  .21-  .06+    230916 I52  .93+  .31-    230916 T14  .02-  .01-    
230912 F52  .14+  .12-    230916 I52  .25-  .58-    
230915 F51  .05+  .12+    230916 I52  .06-  .12-    

Ephemerides (geocentric):
Date (UTC) HH   RA             Dec           delta  r     elong  mag " sig PA
---- --------  ------------   ------------  ------ ------ -----  --- --------
2023 09 19 11  00 19 50.256   -14 07 21.88  .12731 1.1281 164.8 22.0 .374 179
2023 09 19 12  00 20 00.614   -14 06 01.82  .12728 1.1280 164.8 22.0 .379 179
2023 09 19 13  00 20 10.973   -14 04 41.63  .12725 1.1280 164.8 22.0 .384 179
2023 09 19 14  00 20 21.332   -14 03 21.32  .12721 1.1279 164.8 22.0 .389 179
2023 09 19 15  00 20 31.692   -14 02 00.89  .12718 1.1279 164.8 22.0 .394 179
2023 09 19 16  00 20 42.053   -14 00 40.34  .12715 1.1278 164.8 22.0 .399 179
2023 09 19 17  00 20 52.414   -13 59 19.68  .12712 1.1278 164.8 22.0 .405 178
2023 09 19 18  00 21 02.776   -13 57 58.89  .12709 1.1278 164.8 22.0 .410 178
2023 09 19 19  00 21 13.138   -13 56 37.98  .12706 1.1277 164.8 22.0 .415 178
2023 09 19 20  00 21 23.501   -13 55 16.96  .12704 1.1277 164.8 22.0 .420 178
2023 09 19 21  00 21 33.864   -13 53 55.82  .12701 1.1277 164.8 22.0 .425 178
2023 09 19 22  00 21 44.228   -13 52 34.55  .12698 1.1276 164.8 22.0 .431 178
2023 09 19 23  00 21 54.592   -13 51 13.17  .12695 1.1276 164.8 22.0 .436 178
2023 09 20 00  00 22 04.956   -13 49 51.68  .12692 1.1275 164.8 22.0 .441 178
2023 09 20 01  00 22 15.320   -13 48 30.06  .12689 1.1275 164.9 22.0 .447 178
2023 09 20 02  00 22 25.685   -13 47 08.33  .12686 1.1275 164.9 22.0 .452 178
2023 09 20 03  00 22 36.050   -13 45 46.48  .12683 1.1274 164.9 22.0 .458 178
2023 09 20 04  00 22 46.415   -13 44 24.51  .12681 1.1274 164.9 22.0 .463 178
2023 09 20 05  00 22 56.781   -13 43 02.43  .12678 1.1273 164.9 22.0 .468 177
2023 09 20 06  00 23 07.146   -13 41 40.23  .12675 1.1273 164.9 22.0 .474 177
2023 09 20 07  00 23 17.512   -13 40 17.92  .12672 1.1273 164.9 22.0 .480 177
2023 09 20 08  00 23 27.878   -13 38 55.48  .12670 1.1272 164.9 22.0 .485 177
2023 09 20 09  00 23 38.244   -13 37 32.94  .12667 1.1272 164.9 22.0 .491 177
2023 09 20 10  00 23 48.610   -13 36 10.27  .12664 1.1272 164.9 22.0 .496 177
2023 09 20 11  00 23 58.976   -13 34 47.50  .12662 1.1271 164.9 22.0 .502 177
2023 09 20 12  00 24 09.342   -13 33 24.60  .12659 1.1271 164.9 22.0 .508 177
2023 09 20 13  00 24 19.708   -13 32 01.60  .12656 1.1270 164.9 22.0 .513 177
2023 09 20 14  00 24 30.074   -13 30 38.47  .12654 1.1270 164.9 22.0 .519 177
2023 09 20 15  00 24 40.440   -13 29 15.24  .12651 1.1270 164.9 22.0 .525 177
2023 09 20 16  00 24 50.805   -13 27 51.89  .12649 1.1269 164.9 22.0 .531 177
2023 09 20 17  00 25 01.171   -13 26 28.42  .12646 1.1269 164.9 22.0 .537 177
2023 09 20 18  00 25 11.536   -13 25 04.85  .12644 1.1269 164.9 22.0 .543 176
2023 09 20 19  00 25 21.901   -13 23 41.16  .12641 1.1268 164.9 22.0 .548 176
2023 09 20 20  00 25 32.266   -13 22 17.35  .12639 1.1268 164.9 22.0 .554 176
2023 09 20 21  00 25 42.631   -13 20 53.44  .12636 1.1268 164.9 22.0 .560 176
2023 09 20 22  00 25 52.995   -13 19 29.41  .12634 1.1267 164.9 22.0 .566 176
2023 09 20 23  00 26 03.359   -13 18 05.27  .12631 1.1267 164.9 22.0 .572 176
2023 09 21 00  00 26 13.723   -13 16 41.01  .12629 1.1267 164.9 22.0 .578 176
2023 09 21 01  00 26 24.086   -13 15 16.65  .12626 1.1266 164.9 22.0 .585 176
2023 09 21 02  00 26 34.449   -13 13 52.18  .12624 1.1266 164.9 22.0 .591 176
2023 09 21 03  00 26 44.811   -13 12 27.59  .12622 1.1266 164.9 22.0 .597 176
2023 09 21 04  00 26 55.173   -13 11 02.89  .12619 1.1265 164.9 22.0 .603 176
2023 09 21 05  00 27 05.534   -13 09 38.09  .12617 1.1265 164.9 22.0 .609 176
2023 09 21 06  00 27 15.895   -13 08 13.17  .12615 1.1265 164.9 22.0 .615 176
2023 09 21 07  00 27 26.255   -13 06 48.14  .12613 1.1264 164.9 22.0 .622 176
2023 09 21 08  00 27 36.615   -13 05 23.00  .12610 1.1264 164.9 22.0 .628 176
2023 09 21 09  00 27 46.974   -13 03 57.76  .12608 1.1264 164.9 22.0 .634 175
2023 09 21 10  00 27 57.332   -13 02 32.40  .12606 1.1263 164.9 22.0 .641 175